TimeMST,TemperatureF,Dew PointF,Humidity,Sea Level PressureIn,VisibilityMPH,Wind Direction,Wind SpeedMPH,Gust SpeedMPH,PrecipitationIn,Events,Conditions,WindDirDegrees,DateUTC
12:53 AM,30.9,23.0,72,30.32,10.0,WNW,6.9,-,N/A,,Clear,300,2013-02-24 07:53:00
1:53 AM,32.0,23.0,69,30.32,10.0,West,11.5,-,N/A,,Clear,280,2013-02-24 08:53:00
2:53 AM,30.0,21.9,72,30.34,10.0,West,9.2,-,N/A,,Clear,260,2013-02-24 09:53:00
3:53 AM,30.9,21.9,69,30.34,10.0,WNW,6.9,-,N/A,,Clear,290,2013-02-24 10:53:00
4:53 AM,32.0,21.9,66,30.35,10.0,WNW,11.5,-,N/A,,Clear,290,2013-02-24 11:53:00
5:53 AM,30.0,19.9,66,30.37,10.0,SW,12.7,-,N/A,,Clear,220,2013-02-24 12:53:00
6:53 AM,28.9,19.9,69,30.39,10.0,West,8.1,-,N/A,,Clear,280,2013-02-24 13:53:00
7:53 AM,30.9,19.9,64,30.41,10.0,West,8.1,-,N/A,,Clear,270,2013-02-24 14:53:00
8:53 AM,33.1,21.9,64,30.43,10.0,WSW,8.1,-,N/A,,Clear,250,2013-02-24 15:53:00
9:53 AM,36.0,23.0,59,30.43,10.0,WSW,8.1,-,N/A,,Clear,250,2013-02-24 16:53:00
10:53 AM,39.9,21.0,47,30.42,10.0,WNW,8.1,-,N/A,,Clear,300,2013-02-24 17:53:00
11:53 AM,41.0,21.9,47,30.42,10.0,WSW,9.2,-,N/A,,Clear,240,2013-02-24 18:53:00
12:53 PM,42.1,19.9,41,30.40,10.0,WSW,5.8,-,N/A,,Clear,240,2013-02-24 19:53:00
1:53 PM,44.1,18.0,35,30.37,10.0,SW,3.5,-,N/A,,Clear,220,2013-02-24 20:53:00
2:53 PM,46.0,19.0,34,30.35,10.0,NNE,3.5,-,N/A,,Clear,30,2013-02-24 21:53:00
3:53 PM,46.0,21.0,37,30.33,10.0,ESE,5.8,-,N/A,,Clear,120,2013-02-24 22:53:00
4:53 PM,46.0,21.0,37,30.33,10.0,SE,4.6,-,N/A,,Clear,130,2013-02-24 23:53:00
5:53 PM,45.0,21.9,40,30.32,10.0,East,4.6,-,N/A,,Clear,100,2013-02-25 00:53:00
6:53 PM,39.9,24.1,53,30.32,10.0,East,5.8,-,N/A,,Clear,100,2013-02-25 01:53:00
7:53 PM,34.0,24.1,67,30.33,10.0,Calm,Calm,-,N/A,,Clear,0,2013-02-25 02:53:00
8:53 PM,34.0,25.0,70,30.32,10.0,NNE,4.6,-,N/A,,Clear,20,2013-02-25 03:53:00
9:53 PM,32.0,24.1,73,30.32,10.0,North,3.5,-,N/A,,Clear,350,2013-02-25 04:53:00
10:53 PM,30.9,24.1,76,30.30,10.0,NNE,4.6,-,N/A,,Clear,30,2013-02-25 05:53:00
11:53 PM,30.0,24.1,79,30.29,10.0,NNE,3.5,-,N/A,,Clear,30,2013-02-25 06:53:00